• Join FlightAware (Why Join?)
  • Login
  • US Flag 
06:09AM EDT


 

Airport Tracker/Info


-or-


 

Live Flight TrackerFlight Track Log ✈ KAP169 ✈ 16-May-2013 ✈ KBOS - KRKD

Flight Track Log - Related Links

Times and Time Zones

All times are in EDT time to prevent confusion due to time zone crossing. See the KAP169 flight status page for this flight to view local times or setup timezone preferences in your user account.

Time Position Orientation Groundspeed Altitude Reporting Facility
EDT Latitude Longitude Course Direction KTS MPH feet Rate Location/Type
09:34AM 42.3667 -71.0167 270° West 93 107 400  Level KA90
09:34AM 42.3667 -71.0500 270° West 101 116 1,300 720 Climbing KA90
09:36AM 42.3667 -71.1000 270° West 107 123 2,000 600 Climbing KA90
09:37AM 42.3833 -71.1167 324° Northwest 114 131 2,600 540 Climbing KA90
09:38AM 42.4000 -71.1167 360° North 114 131 3,100 480 Climbing KA90
09:39AM 42.4333 -71.1000 20° North 113 130 3,600 480 Climbing KA90
09:40AM 42.4667 -71.0833 20° North 120 138 4,200 540 Climbing KA90
09:41AM 42.5000 -71.0833 360° North 111 128 4,800 540 Climbing KA90
09:42AM 42.5333 -71.0667 20° North 115 132 5,300 540 Climbing KA90
09:43AM 42.5667 -71.0500 20° North 122 140 5,900 540 Climbing KA90
09:44AM 42.6000 -71.0333 20° North 129 148 6,400 540 Climbing KA90
09:45AM 42.6333 -71.0167 20° North 129 148 7,100 300 Climbing KA90
09:46AM 42.6667 -71.0000 20° North 150 173 7,100  Level KA90
09:47AM 42.7167 -70.9833 14° North 163 188 7,100  Level KA90
09:48AM 42.7667 -70.9667 14° North 160 184 7,100  Level KA90
09:49AM 42.8000 -70.9500 20° North 159 183 7,100  Level KA90
09:50AM 42.8500 -70.9333 14° North 158 182 7,100  Level KA90
09:51AM 42.8833 -70.9167 20° North 154 177 7,100  Level KA90
09:52AM 42.9167 -70.8833 36° Northeast 178 205 7,100  Level KA90
09:53AM 42.9500 -70.8333 48° Northeast 182 209 7,100  Level KA90
09:54AM 42.9833 -70.7833 48° Northeast 179 206 7,100  Level KA90
09:55AM 43.0167 -70.7333 48° Northeast 174 200 7,100  Level KA90
09:56AM 43.0667 -70.6833 36° Northeast 176 203 7,100  Level KA90
09:57AM 43.0833 -70.6333 65° Northeast 178 205 7,100  Level KA90
09:59AM 43.1566 -70.6502 350° North  Level FlightAware Approximate
10:06AM 43.4413 -70.5424 59° Northeast  Level FlightAware Approximate
10:07AM 43.4622 -70.4935 60° Northeast  Level FlightAware Approximate
10:08AM 43.4831 -70.4444 60° Northeast  Level FlightAware Approximate
10:09AM 43.5039 -70.3954 60° Northeast  Level FlightAware Approximate
10:10AM 43.5248 -70.3463 60° Northeast  Level FlightAware Approximate
10:11AM 43.5456 -70.2972 60° Northeast  Level FlightAware Approximate
10:12AM 43.5664 -70.2480 60° Northeast  Level FlightAware Approximate
10:13AM 43.5872 -70.1989 60° Northeast  Level FlightAware Approximate
10:14AM 43.6079 -70.1496 60° Northeast  Level FlightAware Approximate
10:15AM 43.6287 -70.1004 60° Northeast  Level FlightAware Approximate
10:16AM 43.6494 -70.0511 60° Northeast  Level FlightAware Approximate
10:17AM 43.6701 -70.0018 60° Northeast  Level FlightAware Approximate
10:18AM 43.6908 -69.9524 60° Northeast  Level FlightAware Approximate
10:19AM 43.7114 -69.9030 60° Northeast  Level FlightAware Approximate
10:20AM 43.7320 -69.8536 60° Northeast  Level FlightAware Approximate
10:21AM 43.7527 -69.8042 60° Northeast  Level FlightAware Approximate
10:22AM 43.7732 -69.7547 60° Northeast  Level FlightAware Approximate
10:23AM 43.7938 -69.7051 60° Northeast  Level FlightAware Approximate
10:24AM 43.8144 -69.6556 60° Northeast  Level FlightAware Approximate
10:25AM 43.8415 -69.6127 47° Northeast  Level FlightAware Approximate
10:26AM 43.8594 -69.5623 71° East  Level FlightAware Approximate
10:27AM 43.8822 -69.5178 36° Northeast  Level FlightAware Approximate
10:28AM 43.9027 -69.4684 61° Northeast  Level FlightAware Approximate